SCP
0 1 1 1 1 0 1 1 0 0 0 1 1 0 0 0 0 0 0 0 0 0 0 0 0 0 1 1 1 1 1 1 1 1 1 1 0 0 0 0 0 0 0
0 1 1 1 1 0 0 0 0 0 0 1 1 1 0 0 0 0 0 0 0 0 1 1 0 0 1 1 1 1 1 1 1 1 1 1 0 0 0 0 0 0 0
0 0 1 1 1 0 0 0 0 1 1 1 1 1 1 0 0 0 1 0 0 1 1 1 0 0 1 1 1 1 1 1 1 1 1 0 0 0 0 0 0 0 0
0 0 0 1 1 1 0 0 1 1 1 1 1 1 1 1 0 1 1 1 1 1 1 1 1 0 0 1 1 1 1 1 1 1 1 0 0 0 0 0 0 0 0
0 0 0 1 1 1 1 1 1 1 1 0 1 1 1 1 1 1 1 1 0 0 1 1 1 0 0 0 1 1 1 1 1 1 1 0 0 0 0 0 1 1 1
0 0 0 1 1 1 1 1 1 1 1 1 1 1 1 1 1 1 1 1 0 0 1 1 0 0 0 1 1 1 1 1 1 0 0 0 0 0 0 0 1 1 1
0 0 0 1 1 1 1 1 1 1 1 1 1 1 1 1 1 1 1 1 1 1 0 0 0 0 0 1 1 1 0 0 0 0 0 0 0 1 0 0 0 1 1
0 0 0 1 1 1 1 1 1 1 1 1 1 1 1 1 1 1 1 1 1 1 1 0 0 0 0 1 1 0 0 0 0 0 0 0 0 1 1 0 0 1 1
0 0 1 1 1 1 1 1 1 1 1 1 1 1 1 1 1 1 1 1 1 1 1 1 1 1 1 1 1 0 0 0 0 0 0 0 0 1 1 1 0 0 0
0 1 1 1 1 1 1 1 1 1 1 1 1 1 1 1 1 1 1 1 1 1 1 1 1 1 1 1 0 0 0 0 0 0 0 0 0 0 1 1 1 0 0
0 0 1 1 1 1 1 1 1 1 1 1 1 1 1 1 1 1 1 1 1 1 1 1 1 1 1 0 0 0 0 0 0 0 0 0 0 0 1 1 1 0 0
1 1 1 0 0 0 1 1 1 1 1 0 0 0 0 0 0 1 1 1 1 1 1 1 1 1 1 0 0 0 0 0 0 0 0 0 0 1 1 1 1 1 0
1 1 1 1 1 1 1 1 1 1 1 0 0 0 1 1 1 1 1 0 0 0 1 1 1 1 1 0 0 0 0 0 0 0 0 1 1 1 1 1 1 1 1
1 1 1 1 1 1 1 1 1 1 1 0 1 1 1 1 1 1 1 1 0 0 0 0 0 1 1 1 1 1 1 1 1 1 1 1 1 1 1 1 1 1 1
1 1 1 1 1 1 1 1 1 1 1 1 1 1 1 1 1 1 1 1 1 1 1 1 1 1 1 1 1 1 1 1 1 1 1 1 1 1 1 1 1 1 1
1 1 1 1 1 1 1 1 1 1 1 0 1 1 1 1 1 1 1 1 1 1 1 1 1 1 1 1 1 1 1 1 1 1 1 1 1 1 1 1 1 1 1
1 1 1 1 1 1 1 1 1 0 0 0 1 1 1 1 1 1 1 1 1 1 1 1 1 1 1 1 1 2 2 2 2 1 1 1 1 1 1 1 1 1 1
1 1 1 1 1 1 1 1 1 0 0 0 1 1 1 1 1 1 1 1 1 1 1 1 1 1 1 1 1 2 2 2 1 1 1 1 1 0 1 1 1 1 1
1 1 1 1 2 1 1 1 1 1 1 1 1 1 1 1 1 1 1 1 1 1 1 1 1 1 1 1 1 1 2 1 1 1 1 0 0 0 0 1 1 1 1
1 1 1 1 2 1 1 1 1 1 1 1 1 1 1 1 2 1 1 1 1 1 1 2 2 2 1 1 1 1 1 1 1 0 0 0 0 0 0 0 1 1 1
1 1 1 1 1 1 1 1 1 1 1 1 1 1 1 1 2 2 1 1 1 1 2 2 2 2 1 1 1 1 1 0 0 0 0 0 0 0 0 0 1 1 1
1 1 1 1 1 1 1 1 1 1 1 1 1 1 1 1 1 2 2 1 1 2 2 2 2 2 1 1 1 1 0 0 0 0 0 0 0 0 0 0 0 0 1
2 2 1 1 1 1 1 1 1 1 1 1 1 1 1 1 2 2 2 2 1 2 2 2 2 2 2 1 1 0 0 0 0 0 0 0 0 0 0 0 0 0 0
3 2 2 1 1 1 2 2 2 2 2 1 1 1 1 1 1 2 2 2 2 2 2 2 2 2 1 1 1 0 0 0 0 0 0 0 0 0 0 0 0 0 0
3 3 2 1 1 1 2 2 3 2 2 2 1 1 1 1 2 2 2 2 2 2 2 2 2 1 1 1 0 0 0 0 0 0 0 0 0 0 0 0 0 0 0
3 2 1 1 1 1 2 2 3 2 2 2 2 1 1 2 2 2 2 2 2 2 2 2 1 1 1 1 0 0 0 0 0 0 0 0 0 0 0 0 0 0 0
Wind_Speed
1 1 6 8 9 10 10 10 10 11 12 12 12 12 13 12 13 13 13 13 14 14 14 14 13 15 15 15 15 14 14 14 13 13 13 13 13 13 12 12 12 9 13
1 2 7 8 9 9 10 10 10 10 11 11 11 12 12 11 12 12 13 13 13 13 13 13 13 14 14 14 14 14 14 13 13 13 13 12 12 12 12 12 11 8 12
3 2 4 7 8 9 9 9 10 10 11 11 11 11 11 11 12 12 13 13 12 13 13 13 13 14 14 13 13 13 13 12 12 12 11 7 7 10 10 11 11 11 12
3 2 4 7 8 8 8 9 9 9 10 10 10 11 11 11 12 12 12 12 12 13 13 13 13 13 13 12 12 12 12 11 11 10 6 5 5 9 9 10 10 11 11
3 2 3 7 7 8 8 8 9 9 9 10 10 10 10 10 11 11 11 11 12 13 13 13 13 12 12 12 11 11 11 10 10 8 5 4 4 7 9 9 10 10 11
2 2 2 6 6 7 7 7 8 8 9 9 9 9 9 9 10 10 10 11 11 12 12 12 12 11 11 11 10 10 9 9 8 5 5 4 3 6 8 9 10 10 10
2 2 2 5 5 6 6 7 7 7 8 8 8 9 8 9 9 9 10 10 10 10 11 10 10 10 10 9 9 9 8 8 6 5 4 3 3 5 7 7 8 9 10
2 2 2 3 5 5 6 6 6 7 7 7 8 8 7 8 8 8 8 8 9 9 9 9 9 9 9 8 8 8 7 7 5 4 4 3 4 5 7 7 7 8 9
2 2 2 2 2 4 5 5 6 6 6 6 7 7 7 7 7 7 7 7 8 8 8 8 8 8 8 7 7 7 7 6 4 3 3 2 4 6 7 7 7 8 8
2 2 2 2 2 2 2 4 5 6 6 6 5 5 6 6 6 6 6 6 6 7 7 7 7 7 7 6 6 6 5 5 3 3 2 2 5 6 7 7 8 8 8
1 1 1 1 2 2 2 2 3 4 5 5 4 5 4 3 3 3 5 6 6 6 6 5 5 6 6 5 5 5 4 2 3 2 1 4 5 6 7 7 8 8 8
1 0 0 1 1 1 1 2 2 2 3 3 2 3 2 2 2 3 4 4 5 6 5 5 5 4 4 2 3 3 2 3 2 1 1 4 5 6 6 6 7 8 8
2 1 0 0 1 1 1 1 1 1 2 2 2 3 2 2 2 2 2 2 3 3 3 3 3 3 3 2 2 2 2 2 1 1 1 3 3 4 6 6 7 7 7
2 1 1 1 1 1 1 1 1 1 1 1 1 2 2 2 2 2 1 2 2 2 2 2 2 3 3 3 3 2 2 1 1 1 1 3 3 3 4 5 6 7 7
2 2 1 1 1 1 1 1 1 1 1 1 1 2 2 2 2 1 1 1 1 1 2 2 2 3 2 2 2 2 2 1 1 1 0 2 3 3 4 5 6 7 7
3 2 1 2 1 1 1 1 1 1 1 1 1 1 2 2 2 2 1 1 1 1 2 2 2 2 1 2 2 2 1 1 1 1 0 1 2 2 3 4 4 6 7
3 2 2 2 2 2 2 1 1 1 1 1 1 1 2 2 2 2 2 1 1 1 2 2 2 2 2 2 1 1 1 1 1 1 1 0 0 2 3 3 4 4 6
3 3 2 3 3 2 2 1 1 1 1 1 1 1 1 2 2 2 2 1 1 2 2 2 2 2 2 1 1 0 0 0 0 1 1 1 1 1 2 2 3 3 4
4 4 3 2 3 3 2 2 2 2 1 1 1 1 1 1 2 2 2 1 2 2 2 2 2 2 2 1 1 1 1 0 0 1 1 1 1 1 0 1 2 3 4
4 4 3 2 2 3 2 2 2 2 1 1 1 1 1 1 2 2 2 2 2 2 2 2 2 2 2 1 2 2 2 1 0 0 1 1 1 1 0 0 1 1 2
4 4 4 3 3 3 2 2 1 1 1 1 1 1 1 1 2 2 2 2 2 2 2 2 2 2 2 2 2 2 2 2 2 1 0 1 1 0 1 0 0 0 1
5 5 4 4 3 3 2 2 2 1 1 1 1 2 1 1 1 2 2 2 2 2 2 2 2 2 1 1 2 1 1 2 2 1 1 0 0 0 0 0 0 1 1
6 6 5 4 4 4 3 3 2 2 2 2 2 1 1 1 1 1 2 2 2 2 2 2 3 3 2 1 1 2 2 1 0 1 1 1 1 1 0 1 0 1 1
6 5 5 4 4 4 4 4 4 3 2 1 1 0 1 1 1 1 2 2 2 2 2 2 2 1 2 1 0 0 1 2 2 0 1 1 1 1 1 1 1 1 1
6 5 5 4 4 4 4 4 4 3 2 1 1 1 1 1 1 1 2 2 2 2 1 1 1 1 1 2 1 1 1 1 1 1 1 1 1 1 1 1 1 1 0
5 5 5 5 4 4 4 4 4 4 3 2 1 1 0 1 1 1 2 2 1 1 1 1 1 1 1 1 1 1 2 2 2 2 1 1 1 1 1 1 1 1 1
Wind_Direction
351 35 79 84 87 89 90 93 95 98 101 104 104 108 111 114 119 119 119 121 121 120 120 121 122 124 124 123 121 119 119 119 119 118 118 118 120 122 120 118 116 116 119
81 63 84 85 88 91 93 93 95 98 102 105 107 110 113 116 121 121 122 121 121 121 121 122 122 123 123 122 121 119 119 120 120 120 118 117 121 123 122 122 122 124 126
84 58 83 87 89 91 93 96 98 100 102 103 105 109 111 114 118 121 122 121 120 121 122 121 122 123 122 120 120 118 118 117 118 118 113 108 118 124 126 129 129 129 129
97 72 88 94 95 96 96 98 99 102 105 105 107 108 111 112 116 121 122 123 121 120 122 121 120 122 120 120 120 120 119 118 118 115 106 107 116 127 131 133 134 134 133
86 70 95 99 100 100 101 101 99 102 106 108 109 109 110 113 116 119 121 124 123 123 123 122 121 122 120 118 119 119 118 120 118 109 106 102 107 129 136 140 139 136 135
84 70 102 103 101 101 102 102 101 103 108 112 113 113 113 116 118 119 122 125 125 125 124 123 123 122 121 119 120 122 120 117 110 107 110 111 116 134 140 140 142 139 138
90 57 85 102 104 103 103 105 105 107 110 112 113 114 115 115 116 118 124 127 129 129 128 127 126 125 125 124 126 127 125 120 114 113 116 121 135 142 144 146 147 144 142
96 60 61 93 106 104 104 105 108 111 109 112 114 115 114 116 117 119 120 124 128 130 130 132 131 130 128 127 131 130 127 126 122 123 126 136 153 152 152 156 154 151 149
72 57 37 39 77 102 103 106 111 114 114 114 115 117 117 119 118 118 121 123 128 129 132 134 134 133 130 130 131 135 135 136 125 132 145 150 165 164 161 161 161 159 156
62 47 37 40 43 45 66 98 100 106 111 109 110 116 117 116 117 118 121 128 131 137 139 137 136 136 133 132 134 140 142 129 123 130 137 168 177 175 172 171 170 167 162
73 34 41 45 43 40 53 80 82 92 92 89 84 96 94 78 87 105 123 134 136 142 141 141 140 141 138 132 131 131 126 109 128 135 155 175 181 182 178 175 177 174 169
193 220 15 63 59 53 65 59 45 57 60 61 60 68 69 71 75 95 108 125 124 129 132 134 133 131 121 110 116 115 100 120 133 151 160 172 184 187 181 181 182 179 174
194 198 170 136 100 88 62 70 58 54 59 59 63 67 70 67 64 65 68 79 87 97 88 94 94 91 97 102 102 107 117 122 135 174 164 168 172 184 187 187 185 181 182
165 202 192 136 120 126 109 93 93 78 72 75 72 79 83 81 75 75 74 75 77 84 90 88 95 95 95 98 107 114 119 128 134 160 172 183 183 190 191 187 186 186 192
172 191 174 143 145 146 119 112 108 104 97 83 77 89 119 121 114 103 96 95 98 104 106 105 109 109 108 106 110 117 121 124 140 158 188 191 194 197 196 197 197 191 194
181 181 157 144 148 138 133 135 112 112 103 93 95 111 133 137 137 127 115 108 103 114 121 121 123 115 104 106 101 107 117 131 137 150 164 212 196 201 202 203 199 196 196
181 167 157 157 142 141 147 147 136 119 109 107 104 116 134 141 145 134 130 126 121 115 120 117 111 107 109 100 88 95 124 158 151 152 157 150 211 214 203 199 194 194 197
160 156 171 162 143 145 137 123 110 97 96 88 91 97 117 133 142 135 135 142 126 111 114 118 119 107 102 102 91 64 96 120 162 180 166 153 155 225 233 212 193 193 194
171 162 162 155 145 144 129 101 88 82 84 82 86 99 107 115 136 140 138 135 119 110 114 130 115 119 114 107 95 65 52 90 186 171 158 161 162 180 238 262 211 196 199
169 161 159 153 144 127 108 87 68 56 53 63 75 85 99 117 124 129 130 121 116 114 113 119 122 115 124 124 93 62 38 19 30 155 181 160 156 177 167 224 254 233 201
165 165 167 160 158 135 116 115 103 71 48 51 59 74 90 108 117 127 128 121 123 129 138 131 128 121 121 121 98 65 34 36 37 12 141 138 133 162 128 181 233 252 250
182 179 176 176 167 161 151 140 130 124 96 93 61 53 55 102 126 140 137 139 136 133 129 133 135 132 149 143 130 112 36 8 15 22 36 118 162 131 156 232 224 254 267
190 189 187 184 174 168 151 113 93 73 56 52 51 29 15 63 101 122 139 145 139 143 155 166 160 155 165 172 153 147 155 200 303 357 7 36 45 56 302 300 294 273 252
198 183 179 180 178 170 154 146 148 149 155 172 151 69 27 54 84 115 133 139 136 140 159 184 167 163 152 172 158 115 158 160 161 197 359 14 20 21 321 304 303 282 264
186 176 177 175 177 171 164 166 157 160 165 142 113 76 40 34 45 76 125 131 137 146 162 176 160 172 170 173 163 152 116 79 132 158 216 345 5 345 323 298 301 302 305
180 176 171 171 179 170 166 168 168 171 166 148 151 148 56 37 30 44 100 113 127 136 153 174 167 173 184 175 165 164 163 166 169 161 179 232 309 333 353 343 310 288 298